Change the Weather History Date:

Friday, March 22, 2013

  Actual Average Record
Temperature  
Mean Temperature 26 °F 37 °F  
Max Temperature 33 °F 45 °F 77 °F (1938)
Min Temperature 18 °F 29 °F -2 °F (1888)
Degree Days  
Heating Degree Days 39 28  
Month to date heating degree days 822 693  
Since 1 July heating degree days 5547 5673  
Cooling Degree Days 0 0  
Month to date cooling degree days 0 0  
Year to date cooling degree days 0 0  
Moisture  
Dew Point 14 °F    
Average Humidity 60    
Maximum Humidity 74    
Minimum Humidity 45    
Precipitation  
Precipitation 0.00 in 0.08 in 1.22 in (1938)
Month to date precipitation 1.62 1.48  
Year to date precipitation 7.82 4.89  
Snow  
Snow 0.00 in 0.10 in 10.00 in (1916)
Month to date snowfall 7.4 5.7  
Since 1 July snowfall 44.6 43.5  
Snow Depth 2.00 in    
Sea Level Pressure  
Sea Level Pressure 30.06 in    
Wind  
Wind Speed 5 mph (NNW)    
Max Wind Speed 9 mph    
Max Gust Speed 13 mph    
Visibility 10 miles    
Events      
T = Trace of Precipitation, MM = Missing Value Source: NWS Daily Summary

Daily Weather History Graph

Daily Weather History Graph

Search for Another Location

Airport or City:

Trip Planner

Search our weather history database for the weather conditions in past years. The results will help you decide how hot, cold, wet, or windy it might be!

Date:

Astronomy

Mar. 22, 2013 Rise Set
Actual Time 6:50 AM CDT 7:06 PM CDT
Civil Twilight 6:22 AM CDT 7:34 PM CDT
Nautical Twilight 5:49 AM CDT 8:08 PM CDT
Astronomical Twilight 5:15 AM CDT 8:42 PM CDT
Moon 2:27 PM CDT (3/22) 3:57 AM CDT (3/22)
Length of Visible Light 13h 12m
Length of Day
12h 15m
Waxing Gibbous, 77% of the Moon is Illuminated
Mar 22
Waxing Gibbous
Mar 27
Full
Apr 2
Last Quarter
Apr 10
New
Apr 18
First Quarter

Hourly Weather History & Observations

Time (CDT) Temp. Windchill Dew Point Humidity Pressure Visibility Wind Dir Wind Speed Gust Speed Precip Events Conditions
12:52 AM 21.9 °F 14.5 °F 9.0 °F 58% 30.05 in 10.0 mi West 5.8 mph - N/A   Clear
1:52 AM 21.0 °F 13.4 °F 9.0 °F 60% 30.06 in 10.0 mi West 5.8 mph - N/A   Clear
2:52 AM 21.0 °F 12.4 °F 9.0 °F 60% 30.05 in 10.0 mi WNW 6.9 mph - N/A   Clear
3:52 AM 21.0 °F 11.4 °F 8.1 °F 57% 30.05 in 10.0 mi WNW 8.1 mph - N/A   Clear
4:52 AM 21.0 °F 11.4 °F 8.1 °F 57% 30.05 in 10.0 mi WNW 8.1 mph - N/A   Clear
5:52 AM 19.0 °F 10.0 °F 8.1 °F 62% 30.06 in 10.0 mi WNW 6.9 mph - N/A   Clear
6:52 AM 18.0 °F 6.9 °F 8.1 °F 65% 30.06 in 10.0 mi WNW 9.2 mph - N/A   Clear
7:52 AM 19.0 °F 11.1 °F 9.0 °F 65% 30.06 in 10.0 mi NW 5.8 mph - N/A   Scattered Clouds
8:52 AM 21.9 °F 14.5 °F 10.9 °F 63% 30.06 in 10.0 mi NNW 5.8 mph - N/A   Scattered Clouds
9:52 AM 26.1 °F 21.9 °F 12.9 °F 58% 30.07 in 10.0 mi WNW 3.5 mph - N/A   Partly Cloudy
10:52 AM 30.0 °F 26.5 °F 14.0 °F 51% 30.06 in 10.0 mi Variable 3.5 mph - N/A   Partly Cloudy
11:52 AM 32.0 °F 26.4 °F 14.0 °F 48% 30.07 in 10.0 mi Variable 5.8 mph - N/A   Partly Cloudy
12:52 PM 32.0 °F 24.8 °F 18.0 °F 56% 30.06 in 10.0 mi ENE 8.1 mph - N/A   Partly Cloudy
1:52 PM 30.9 °F 24.3 °F 19.0 °F 61% 30.05 in 10.0 mi East 6.9 mph - N/A   Partly Cloudy
2:52 PM 32.0 °F 26.4 °F 18.0 °F 56% 30.04 in 10.0 mi East 5.8 mph - N/A   Partly Cloudy
3:52 PM 32.0 °F 25.6 °F 17.1 °F 54% 30.03 in 10.0 mi East 6.9 mph - N/A   Partly Cloudy
4:52 PM 32.0 °F 25.6 °F 19.0 °F 59% 30.04 in 10.0 mi East 6.9 mph - N/A   Partly Cloudy
5:52 PM 30.2 °F 24.3 °F 17.6 °F 60% 30.03 in 10.0 mi East 5.8 mph - N/A   Partly Cloudy
6:52 PM 30.0 °F 26.5 °F 18.0 °F 61% 30.08 in 10.0 mi East 3.5 mph - N/A   Partly Cloudy
7:52 PM 28.9 °F - 19.0 °F 67% 30.08 in 10.0 mi Calm Calm - N/A   Partly Cloudy
8:52 PM 28.9 °F - 19.0 °F 67% 30.09 in 10.0 mi Calm Calm - N/A   Partly Cloudy
9:52 PM 28.9 °F - 19.0 °F 67% 30.09 in 10.0 mi Calm Calm - N/A   Partly Cloudy
10:52 PM 28.0 °F 24.2 °F 19.0 °F 69% 30.10 in 10.0 mi West 3.5 mph - N/A   Partly Cloudy
11:52 PM 25.0 °F - 18.0 °F 75% 30.10 in 10.0 mi Calm Calm - N/A   Partly Cloudy